Location: ?????
(55.8833°N, 37.6500°E)
Time: 19:58:37
(UTC+00:00)

Lacrosse 4 Rocket - Pass Details

Date: 27 February 2020
Orbit: 537 x 622 km, 68.0° (Epoch: 07 April)

Event Time Altitude Azimuth Distance (km) Brightness Sun altitude
Rises 16:08:04 0° 255° (WSW) 2,796 6.6 -10.5°
Reaches altitude 10° 16:10:28 10° 266° (W) 1,915 5.7 -10.9°
Maximum altitude 16:14:19 31° 329° (NNW) 1,065 3.1 -11.4°
Drops below altitude 10° 16:18:17 10° 32° (NNE) 1,967 3.8 -12.0°
Enters shadow 16:19:44 - 40° (NE) 2,495 4.3 -12.2°
